TimeCDT,TemperatureF,Dew PointF,Humidity,Sea Level PressureIn,VisibilityMPH,Wind Direction,Wind SpeedMPH,Gust SpeedMPH,PrecipitationIn,Events,Conditions,WindDirDegrees,DateUTC
12:15 AM,24.8,17.6,74,30.18,10.0,ENE,15.0,-,N/A,,Mostly Cloudy,70,2013-03-17 05:15:00
12:35 AM,24.8,17.6,74,30.16,10.0,ENE,10.4,-,N/A,,Partly Cloudy,60,2013-03-17 05:35:00
12:55 AM,24.8,17.6,74,30.16,10.0,ENE,12.7,-,N/A,,Mostly Cloudy,60,2013-03-17 05:55:00
1:15 AM,24.8,17.6,74,30.16,10.0,ENE,13.8,-,N/A,,Mostly Cloudy,60,2013-03-17 06:15:00
1:35 AM,23.0,17.6,80,30.15,10.0,ENE,12.7,-,N/A,,Clear,60,2013-03-17 06:35:00
1:55 AM,23.0,17.6,80,30.14,10.0,ENE,10.4,-,N/A,,Scattered Clouds,70,2013-03-17 06:55:00
2:15 AM,21.2,17.6,86,30.13,10.0,ENE,11.5,-,N/A,,Mostly Cloudy,70,2013-03-17 07:15:00
2:35 AM,21.2,17.6,86,30.13,10.0,ENE,11.5,-,N/A,,Partly Cloudy,70,2013-03-17 07:35:00
2:55 AM,21.2,15.8,80,30.13,10.0,ENE,11.5,-,N/A,,Scattered Clouds,70,2013-03-17 07:55:00
3:15 AM,21.2,15.8,80,30.13,10.0,ENE,11.5,-,N/A,,Mostly Cloudy,60,2013-03-17 08:15:00
3:35 AM,21.2,15.8,80,30.13,10.0,ENE,10.4,-,N/A,,Overcast,60,2013-03-17 08:35:00
3:55 AM,21.2,15.8,80,30.11,10.0,ENE,10.4,-,N/A,,Overcast,70,2013-03-17 08:55:00
4:15 AM,21.2,14.0,74,30.11,10.0,East,11.5,-,N/A,,Overcast,80,2013-03-17 09:15:00
4:35 AM,21.2,15.8,80,30.08,10.0,East,10.4,-,N/A,,Overcast,80,2013-03-17 09:35:00
4:55 AM,21.2,15.8,80,30.08,10.0,East,11.5,-,N/A,,Overcast,80,2013-03-17 09:55:00
5:15 AM,21.2,15.8,80,30.08,10.0,East,10.4,-,N/A,,Overcast,80,2013-03-17 10:15:00
5:35 AM,21.2,15.8,80,30.08,10.0,East,12.7,-,N/A,,Overcast,80,2013-03-17 10:35:00
5:55 AM,21.2,15.8,80,30.08,10.0,East,9.2,-,N/A,,Overcast,80,2013-03-17 10:55:00
6:15 AM,21.2,15.8,80,30.07,10.0,East,10.4,-,N/A,,Overcast,80,2013-03-17 11:15:00
6:35 AM,21.2,15.8,80,30.06,10.0,East,13.8,-,N/A,,Overcast,80,2013-03-17 11:35:00
6:55 AM,21.2,14.0,74,30.05,10.0,East,11.5,-,N/A,,Overcast,80,2013-03-17 11:55:00
7:15 AM,19.4,14.0,80,30.06,10.0,East,11.5,-,N/A,,Mostly Cloudy,90,2013-03-17 12:15:00
7:35 AM,21.2,15.8,80,30.06,10.0,East,10.4,-,N/A,,Mostly Cloudy,90,2013-03-17 12:35:00
7:55 AM,21.2,15.8,80,30.06,10.0,East,10.4,-,N/A,,Overcast,90,2013-03-17 12:55:00
8:15 AM,21.2,15.8,80,30.07,10.0,East,11.5,-,N/A,,Overcast,100,2013-03-17 13:15:00
8:35 AM,21.2,15.8,80,30.06,10.0,ESE,12.7,-,N/A,,Overcast,110,2013-03-17 13:35:00
8:55 AM,21.2,15.8,80,30.05,10.0,East,13.8,-,N/A,,Overcast,100,2013-03-17 13:55:00
9:15 AM,21.2,15.8,80,30.05,10.0,ESE,12.7,17.3,N/A,,Overcast,120,2013-03-17 14:15:00
9:35 AM,21.2,15.8,80,30.05,10.0,ESE,12.7,-,N/A,,Overcast,110,2013-03-17 14:35:00
9:55 AM,23.0,14.0,68,30.04,10.0,ESE,15.0,-,N/A,,Overcast,110,2013-03-17 14:55:00
10:15 AM,23.0,15.8,74,30.03,10.0,ESE,15.0,19.6,N/A,,Overcast,120,2013-03-17 15:15:00
10:35 AM,24.8,15.8,69,30.03,10.0,ESE,18.4,-,N/A,,Overcast,120,2013-03-17 15:35:00
10:55 AM,24.8,15.8,69,30.01,10.0,ESE,18.4,23.0,N/A,,Overcast,120,2013-03-17 15:55:00
11:15 AM,26.6,15.8,64,29.99,10.0,SE,18.4,23.0,N/A,,Scattered Clouds,130,2013-03-17 16:15:00
11:35 AM,26.6,17.6,69,29.98,10.0,SE,17.3,21.9,N/A,,Partly Cloudy,130,2013-03-17 16:35:00
11:55 AM,28.4,15.8,59,29.96,10.0,SE,19.6,26.5,N/A,,Partly Cloudy,130,2013-03-17 16:55:00
12:15 PM,30.2,15.8,55,29.94,10.0,SE,17.3,25.3,N/A,,Clear,140,2013-03-17 17:15:00
12:35 PM,30.2,17.6,60,29.94,10.0,SE,19.6,26.5,N/A,,Clear,130,2013-03-17 17:35:00
12:55 PM,32.0,17.6,55,29.92,10.0,SE,16.1,25.3,N/A,,Clear,140,2013-03-17 17:55:00
1:15 PM,33.8,17.6,52,29.91,10.0,SSE,18.4,25.3,N/A,,Mostly Cloudy,150,2013-03-17 18:15:00
1:35 PM,35.6,17.6,48,29.89,10.0,SE,21.9,28.8,N/A,,Mostly Cloudy,140,2013-03-17 18:35:00
1:55 PM,37.4,21.2,52,29.87,10.0,SE,20.7,27.6,N/A,,Mostly Cloudy,140,2013-03-17 18:55:00
2:15 PM,35.6,21.2,56,29.85,10.0,SE,19.6,24.2,N/A,,Scattered Clouds,130,2013-03-17 19:15:00
2:35 PM,35.6,19.4,52,29.83,10.0,SE,21.9,25.3,N/A,,Partly Cloudy,140,2013-03-17 19:35:00
2:55 PM,35.6,21.2,56,29.82,10.0,SSE,19.6,28.8,N/A,,Partly Cloudy,160,2013-03-17 19:55:00
3:15 PM,37.4,21.2,52,29.81,10.0,SSE,19.6,26.5,N/A,,Scattered Clouds,150,2013-03-17 20:15:00
3:35 PM,37.4,23.0,56,29.78,10.0,SE,23.0,27.6,N/A,,Scattered Clouds,140,2013-03-17 20:35:00
3:55 PM,37.4,21.2,52,29.77,10.0,ESE,13.8,26.5,N/A,,Partly Cloudy,120,2013-03-17 20:55:00
4:15 PM,37.4,23.0,56,29.75,10.0,SE,20.7,27.6,N/A,,Scattered Clouds,130,2013-03-17 21:15:00
4:35 PM,37.4,24.8,60,29.75,10.0,SE,19.6,-,N/A,,Mostly Cloudy,130,2013-03-17 21:35:00
4:55 PM,37.4,24.8,60,29.75,10.0,SE,17.3,-,N/A,,Mostly Cloudy,140,2013-03-17 21:55:00
5:15 PM,37.4,24.8,60,29.76,10.0,SE,18.4,-,N/A,,Overcast,140,2013-03-17 22:15:00
5:35 PM,37.4,26.6,65,29.75,10.0,SE,15.0,-,N/A,,Overcast,140,2013-03-17 22:35:00
5:55 PM,37.4,26.6,65,29.74,10.0,SE,17.3,23.0,N/A,,Mostly Cloudy,140,2013-03-17 22:55:00
6:15 PM,37.4,26.6,65,29.73,10.0,SSE,17.3,20.7,N/A,,Overcast,150,2013-03-17 23:15:00
6:35 PM,39.2,26.6,61,29.73,10.0,SSE,16.1,-,N/A,,Overcast,150,2013-03-17 23:35:00
6:55 PM,37.4,26.6,65,29.74,10.0,SSE,12.7,-,N/A,,Overcast,150,2013-03-17 23:55:00
7:15 PM,37.4,26.6,65,29.74,10.0,SE,11.5,-,N/A,,Overcast,140,2013-03-18 00:15:00
7:35 PM,37.4,26.6,65,29.73,10.0,SE,11.5,16.1,N/A,,Overcast,140,2013-03-18 00:35:00
7:55 PM,37.4,28.4,70,29.73,10.0,ESE,11.5,-,N/A,,Overcast,120,2013-03-18 00:55:00
8:15 PM,35.6,26.6,70,29.68,10.0,ESE,19.6,25.3,N/A,,Overcast,120,2013-03-18 01:15:00
8:35 PM,35.6,28.4,75,29.66,9.0,SE,20.7,29.9,N/A,,Mostly Cloudy,130,2013-03-18 01:35:00
8:55 PM,35.6,28.4,75,29.67,10.0,SE,19.6,31.1,N/A,,Partly Cloudy,130,2013-03-18 01:55:00
9:15 PM,37.4,28.4,70,29.66,10.0,ESE,17.3,24.2,N/A,,Scattered Clouds,120,2013-03-18 02:15:00
9:35 PM,35.6,30.2,81,29.65,10.0,ESE,15.0,24.2,N/A,,Scattered Clouds,120,2013-03-18 02:35:00
9:55 PM,37.4,30.2,75,29.65,10.0,SE,21.9,28.8,N/A,,Mostly Cloudy,140,2013-03-18 02:55:00
10:15 PM,35.6,32.0,87,29.65,10.0,SSE,20.7,28.8,N/A,,Overcast,150,2013-03-18 03:15:00
10:35 PM,35.6,33.8,93,29.65,10.0,SE,23.0,33.4,N/A,,Overcast,140,2013-03-18 03:35:00
10:55 PM,35.6,32.0,87,29.65,10.0,SSE,21.9,26.5,N/A,,Overcast,150,2013-03-18 03:55:00
11:15 PM,35.6,32.0,87,29.65,10.0,SSE,21.9,28.8,N/A,,Overcast,150,2013-03-18 04:15:00
11:35 PM,35.6,32.0,87,29.66,10.0,SSE,17.3,26.5,N/A,,Overcast,150,2013-03-18 04:35:00
11:55 PM,35.6,33.8,93,29.66,10.0,SE,13.8,26.5,N/A,,Overcast,140,2013-03-18 04:55:00